Location: ČR
(50.0000°N, 15.0000°E)
Time: 15:19:06
(UTC+00:00)

Explorer 7 - Pass Details

Date: 24 October 2021
Orbit: 483 x 675 km, 50.3° (Epoch: 27 November)

Event Time Altitude Azimuth Distance (km) Brightness Sun altitude
Rises 22:31:28 0° 267° (W) 2,727 - -52.0°
Reaches altitude 10° 22:33:38 10° 268° (W) 1,864 - -52.0°
Maximum altitude 22:37:55 85° 356° (N) 601 - -52.1°
Drops below altitude 10° 22:42:30 10° 87° (E) 1,989 - -52.1°
Sets 22:44:53 0° 88° (E) 2,926 - -52.1°
